Regional Weather Roundup
Issued by NWS

Home | Current Version | Previous Version | Text Only | Print | Product List | Glossary On
Versions: 1 2 3 4 5 6 7 8 9 10 11 12 13 14 15 16 17 18 19 20 21 22 23 24 25 26 27
000
ASUS45 KPSR 251210
RWRAZ

ARIZONA HOURLY REGIONAL WEATHER ROUNDUP
NATIONAL WEATHER SERVICE PHOENIX AZ
500 AM MST SAT FEB 25 2017

NOTE: FAIR INDICATES FEW OR NO CLOUDS BELOW 12,000 FEET WITH NO
SIGNIFICANT WEATHER AND/OR OBSTRUCTIONS TO VISIBILITY.

AZZ001>003-036-251300-
NORTHWEST ARIZONA

CITY           SKY/WX    TMP DP  RH WIND       PRES   REMARKS
BULLHEAD CITY  CLEAR     41  27  56 CALM      30.12S
KINGMAN        CLEAR     28   8  43 CALM      30.08F
6HR MIN TEMP:  26; 6HR MAX TEMP:  31;

$$

AZZ004>008-015-016-018-251300-
NORTH CENTRAL ARIZONA

CITY           SKY/WX    TMP DP  RH WIND       PRES   REMARKS
GRAND CANYON   CLEAR     12   9  87 E3        30.05F
6HR MIN TEMP:  12; 6HR MAX TEMP:  18;

WILLIAMS       CLEAR     16  10  79 S7        30.05S WCI   6
PRESCOTT       CLEAR     23  14  68 CALM      30.09S
6HR MIN TEMP:  21; 6HR MAX TEMP:  32;

FLAGSTAFF      CLEAR     14   9  80 CALM      30.05S
6HR MIN TEMP:  14; 6HR MAX TEMP:  25;

PAYSON         CLEAR     27  19  74 CALM      30.12S
PAGE           CLEAR     28   5  37 CALM      30.08F
6HR MIN TEMP:  28; 6HR MAX TEMP:  35;

$$

AZZ009>014-017-251300-
NORTHEAST ARIZONA

CITY           SKY/WX    TMP DP  RH WIND       PRES   REMARKS
WINSLOW        CLEAR     21  14  74 CALM      30.09S
6HR MIN TEMP:  18; 6HR MAX TEMP:  31;

SAINT JOHNS    CLEAR     20  12  71 SW3       30.08R
6HR MIN TEMP:  20; 6HR MAX TEMP:  32;

WINDOW ROCK    CLEAR     14   8  77 CALM      30.06R
6HR MIN TEMP:  14; 6HR MAX TEMP:  27;

SHOW LOW       CLEAR     23  12  63 S10       30.08R WCI  12
$$

AZZ023-251300-
GREATER PHOENIX AREA

CITY           SKY/WX    TMP DP  RH WIND       PRES   REMARKS
PHOENIX        CLEAR     45  31  58 E5        30.10S
6HR MIN TEMP:  45; 6HR MAX TEMP:  53;

BUCKEYE          N/A     36  36 100 NW3       30.11F
LUKE AFB       CLEAR     38  31  75 N5        30.10S WCI  34
6HR MIN TEMP:  38; 6HR MAX TEMP:  46;

DEER VALLEY    CLEAR     40  30  67 E3        30.10S
6HR MIN TEMP:  40; 6HR MAX TEMP:  46;

SCOTTSDALE     CLEAR     39  33  79 CALM      30.11F
6HR MIN TEMP:  39; 6HR MAX TEMP:  50;

MESA-GATEWAY   CLEAR     37  30  75 SE6       30.12S WCI  33
$$

AZZ027-028-251300-
SOUTHWEST MARICOPA COUNTY AND PINAL COUNTY

CITY           SKY/WX    TMP DP  RH WIND       PRES   REMARKS
CASA GRANDE    NOT AVBL
$$

AZZ503-504-507>509-251300-
SOUTHEAST ARIZONA

CITY           SKY/WX    TMP DP  RH WIND       PRES   REMARKS
TUCSON         CLEAR     38  19  46 SE7       30.12S WCI  33
6HR MIN TEMP:  38; 6HR MAX TEMP:  46;

DAVIS-MONTHAN  CLEAR     34  19  53 SE9       30.11S WCI  27
6HR MIN TEMP:  33; 6HR MAX TEMP:  43;

NOGALES        CLEAR     29  16  58 NE3       30.10F
6HR MIN TEMP:  28; 6HR MAX TEMP:  39;

SIERRA VISTA   CLEAR     35  14  43 S5        30.11S WCI  30
6HR MIN TEMP:  33; 6HR MAX TEMP:  40;

DOUGLAS        CLEAR     26  13  57 CALM      30.12R
6HR MIN TEMP:  23; 6HR MAX TEMP:  37;

SAFFORD        CLEAR     33  14  45 CALM      30.11S
6HR MIN TEMP:  29; 6HR MAX TEMP:  45;

$$

AZZ020-021-025-026-031-251300-
SOUTHWEST ARIZONA

CITY           SKY/WX    TMP DP  RH WIND       PRES   REMARKS
YUMA           CLEAR     48  32  53 N3        30.10S
6HR MIN TEMP:  47; 6HR MAX TEMP:  55;

$$

CAZ031-033-041-043-047-048-061-251300-
SOUTHERN CALIFORNIA

CITY           SKY/WX    TMP DP  RH WIND       PRES   REMARKS
DOWNTOWN L.A.  CLEAR     45  37  73 CALM      30.12S
6HR MIN TEMP:  45; 6HR MAX TEMP:  52;

L.A. AIRPORT   CLEAR     45  38  76 NE3       30.12F
6HR MIN TEMP:  45; 6HR MAX TEMP:  53;

SAN DIEGO      CLEAR     49  38  65 CALM      30.14F
6HR MIN TEMP:  47; 6HR MAX TEMP:  53;

BURBANK        CLEAR     40  31  70 SW5       30.11S
6HR MIN TEMP:  39; 6HR MAX TEMP:  47;

ONTARIO        CLEAR     42  33  70 CALM      30.11F
6HR MIN TEMP:  40; 6HR MAX TEMP:  48;

RIVERSIDE      CLEAR     39  35  86 CALM      30.12F
6HR MIN TEMP:  39; 6HR MAX TEMP:  47;

PALM SPRINGS   CLEAR     45  36  70 W3        30.11F
6HR MIN TEMP:  45; 6HR MAX TEMP:  53;

EL CENTRO NAS  CLEAR     45  27  49 SW3       30.10F
6HR MIN TEMP:  40; 6HR MAX TEMP:  55;

IMPERIAL       CLEAR     43  31  62 CALM      30.08F
6HR MIN TEMP:  43; 6HR MAX TEMP:  53;

BLYTHE         CLEAR     41  38  89 N6        30.11S
6HR MIN TEMP:  41; 6HR MAX TEMP:  50;

NEEDLES        CLEAR     43  29  57 CALM      30.11S
6HR MIN TEMP:  42; 6HR MAX TEMP:  52;

$$

NVZ020-UTZ003-251300-
SOUTHERN NEVADA-UTAH

CITY           SKY/WX    TMP DP  RH WIND       PRES   REMARKS
LAS VEGAS      CLEAR     38  21  50 S5        30.06F WCI  34
6HR MIN TEMP:  38; 6HR MAX TEMP:  46;

SALT LAKE CITY MOCLDY    22  13  68 SE9       30.10F WCI  12
6HR MIN TEMP:  21; 6HR MAX TEMP:  24;

$$

NMZ009-TXZ055-251300-
NEW MEXICO-WEST TEXAS

CITY           SKY/WX    TMP DP  RH WIND       PRES   REMARKS
ALBUQUERQUE    CLEAR     24   2  38 CALM      30.08R
6HR MIN TEMP:  24; 6HR MAX TEMP:  34;

EL PASO        CLEAR     45   5  19 NW5       30.06S
6HR MIN TEMP:  43; 6HR MAX TEMP:  52;

$$


........................KEY........................
SKY/WX - SKY CONDITION/WEATHER
TMP    - TEMPERATURE IN FAHRENHEIT
DP     - DEW POINT IN FAHRENHEIT
RH     - RELATIVE HUMIDITY IN PERCENT
WIND   - DIRECTION AND SPEED IN MILES PER HOUR (MPH)
VRB    - VARIABLE WIND DIRECTION
PRES   - MEAN SEA LEVEL PRESSURE IN INCHES OF MERCURY
         F - FALLING PRESSURE   R - RISING PRESSURE
         S - STEADY PRESSURE
VSB    - VISIBILITY IN MILES
HX     - HEAT INDEX IN FAHRENHEIT
WCI    - WIND CHILL INDEX IN FAHRENHEIT
TC     - TEMPERATURE IN CELSIUS WHICH IS ALSO KNOWN AS
         TEMPERATURE IN CENTIGRADE
AFB    - AIR FORCE BASE
         LUKE AFB IS LUKE AIR FORCE BASE
         DAVIS-MONTHAN IS DAVIS-MONTHAN AIR FORCE BASE
NAS    - NAVAL AIR STATION
         EL CENTRO NAS IS EL CENTRO NAVAL AIR STATION
N/A    - NOT AVAILABLE





USA.gov is the U.S. government's official web portal to all federal, state and local government web resources and services.